Weather History for St. Johnsbury, VT

Change the Weather History Date:

Friday, April 4, 2014

  Actual Average Record
Temperature  
Mean Temperature 35 °F 39 °F  
Max Temperature 49 °F 50 °F 73 °F (1981)
Min Temperature 20 °F 28 °F -2 °F (1954)
Degree Days  
Heating Degree Days 30 26  
Month to date heating degree days 112 106  
Since 1 July heating degree days 7565 6906  
Cooling Degree Days 0 0  
Month to date cooling degree days 0 0  
Year to date cooling degree days 0 0  
Moisture  
Dew Point 22 °F    
Average Humidity 62    
Maximum Humidity 89    
Minimum Humidity 34    
Precipitation  
Precipitation 0.31 in 0.10 in 0.92 in (1960)
Month to date precipitation 0.31 0.37  
Year to date precipitation 8.31 7.56  
Sea Level Pressure  
Sea Level Pressure 30.03 in    
Wind  
Wind Speed - (North)    
Max Wind Speed -    
Max Gust Speed -    
T = Trace of Precipitation, MM = Missing Value Source: NWS Daily Summary

Daily Weather History Graph

Daily Weather History Graph

Search for Another Location

Airport:

Trip Planner

Search our weather history database for the weather conditions in past years. The results will help you decide how hot, cold, wet, or windy it might be!

Date:

Astronomy

Apr. 04, 2014 Rise Set
Actual Time 6:23 AM EDT 7:19 PM EDT
Civil Twilight 5:54 AM EDT 7:48 PM EDT
Nautical Twilight 5:19 AM EDT 8:24 PM EDT
Astronomical Twilight 4:42 AM EDT 9:00 PM EDT
Moon 9:30 AM EDT (4/4) No Moon Set
Length of Visible Light 13h 54m
Length of Day
12h 55m
Waxing Crescent, 25% of the Moon is Illuminated
Apr 4
Waxing Crescent
Apr 7
First Quarter
Apr 15
Full
Apr 22
Last Quarter
Apr 29
New

Hourly Weather History & Observations

Time (EDT) Temp. Dew Point Humidity Pressure Visibility Wind Dir Wind Speed Gust Speed Precip Events Conditions
12:54 AM 28.0 °F 19.9 °F 72% 30.18 in - North - - N/A   Unknown
1:54 AM 26.1 °F 19.9 °F 78% 30.17 in - North - - N/A   Unknown
2:54 AM 24.1 °F 19.9 °F 84% 30.17 in - North - - N/A   Unknown
3:54 AM 23.0 °F 19.0 °F 85% 30.15 in - North - - N/A   Unknown
4:54 AM 21.9 °F 18.0 °F 85% 30.14 in - North - - N/A   Unknown
5:54 AM 21.0 °F 18.0 °F 88% 30.15 in - North - - N/A   Unknown
6:54 AM 21.0 °F 17.1 °F 85% 30.18 in - North - - N/A   Unknown
7:54 AM 23.0 °F 19.0 °F 85% 30.17 in - North - - N/A   Unknown
8:54 AM 27.0 °F 19.0 °F 72% 30.16 in - North - - N/A   Unknown
9:54 AM 33.1 °F 19.0 °F 56% 30.15 in - North - - N/A   Unknown
10:54 AM 37.0 °F 19.0 °F 48% 30.10 in - North - - N/A   Unknown
11:54 AM 41.0 °F 19.9 °F 43% 30.07 in - North - - N/A   Unknown
12:54 PM 45.0 °F 21.0 °F 39% 30.04 in - North - - N/A   Unknown
1:54 PM 46.9 °F 21.9 °F 37% 30.00 in - North - - N/A   Unknown
2:54 PM 48.0 °F 21.0 °F 34% 29.97 in - North - - N/A   Unknown
3:54 PM 46.9 °F 21.0 °F 36% 29.94 in - North - - N/A   Unknown
4:54 PM 45.0 °F 21.0 °F 39% 29.90 in - North - - N/A   Unknown
5:54 PM 45.0 °F 21.9 °F 40% 29.89 in - North - - N/A   Unknown
6:54 PM 39.9 °F 28.0 °F 63% 29.87 in - North - - 0.01 in   Unknown
7:54 PM 36.0 °F 30.0 °F 79% 29.86 in - North - - 0.05 in   Unknown
8:54 PM 34.0 °F 30.0 °F 85% 29.87 in - North - - 0.03 in   Unknown
9:54 PM 34.0 °F 30.0 °F 85% 29.88 in - North - - 0.15 in   Unknown
10:54 PM 33.1 °F 30.0 °F 89% 29.87 in - North - - 0.03 in   Unknown
11:54 PM 33.1 °F 30.0 °F 89% 29.84 in - North - - 0.04 in   Unknown